Richmond, VA

4:26 PM EST on December 06, 2019 (GMT -0500)
Richmond International

Weather History for KRIC - October, 2019

Change the Weather History Date:

Monday, October 7, 2019

  Actual Average Record
Temperature  
Mean Temperature 72 °F 62 °F  
Max Temperature 84 °F 74 °F 95 °F (1941)
Min Temperature 60 °F 51 °F 33 °F (1935)
Degree Days  
Heating Degree Days 0 4  
Month to date heating degree days 4 25  
Since 1 July heating degree days 4 54  
Cooling Degree Days 8 2  
Month to date cooling degree days 69 16  
Year to date cooling degree days 2039 1520  
Growing Degree Days 22 (Base 50)    
Moisture  
Dew Point 62 °F    
Average Humidity 70    
Maximum Humidity 97    
Minimum Humidity 46    
Precipitation  
Precipitation T in 0.10 in 1.86 in (1951)
Month to date precipitation T 0.69  
Year to date precipitation 33.15 34.81  
Snow  
Snow 0.00 in 0.00 in 0.00 in (2002)
Month to date snowfall 0.0 0.0  
Since 1 July snowfall 0.0 0.0  
Snow Depth 0.00 in    
Sea Level Pressure  
Sea Level Pressure 30.14 in    
Wind  
Wind Speed 6 mph ()    
Max Wind Speed 18 mph    
Max Gust Speed 24 mph    
Visibility 10.0 miles    
Events      
T = Trace of Precipitation, MM = Missing Value Source: Averaged Metar Reports

Daily Weather History Graph

Daily Weather History Graph

Search for Another Location

Airport or City:

Astronomy

Oct. 07, 2019 Rise Set
Actual Time 7:09 AM EDT 6:43 PM EDT
Civil Twilight 6:43 AM EDT 7:09 PM EDT
Nautical Twilight 6:13 AM EDT 7:40 PM EDT
Astronomical Twilight 5:43 AM EDT 8:10 PM EDT
Moon 3:56 PM EDT (10/7) 1:09 AM EDT (10/7)
Length of Visible Light 12h 26m
Length of Day
11h 33m
Waxing Gibbous, 69% of the Moon is Illuminated
Oct 7
Waxing Gibbous
Oct 13
Full
Oct 21
Last Quarter
Oct 27
New
Nov 4
First Quarter

Hourly Weather History & Observations

Time (EDT) Temp. Heat Index Dew Point Humidity Pressure Visibility Wind Dir Wind Speed Gust Speed Precip Events Conditions
12:54 AM 69.1 °F - 61.0 °F 75% 30.23 in 10.0 mi South 9.2 mph - N/A   Mostly Cloudy
1:54 AM 66.9 °F - 61.0 °F 81% 30.23 in 10.0 mi SSE 8.1 mph - N/A   Partly Cloudy
2:54 AM 64.9 °F - 61.0 °F 87% 30.22 in 10.0 mi SSE 5.8 mph - N/A   Clear
3:54 AM 63.0 °F - 60.1 °F 90% 30.20 in 10.0 mi South 3.5 mph - N/A   Scattered Clouds
4:54 AM 63.0 °F - 60.1 °F 90% 30.19 in 10.0 mi South 4.6 mph - N/A   Mostly Cloudy
5:54 AM 64.9 °F - 60.1 °F 84% 30.19 in 10.0 mi SSE 4.6 mph - N/A   Partly Cloudy
6:54 AM 60.1 °F - 59.0 °F 96% 30.20 in 10.0 mi SSE 3.5 mph - N/A   Scattered Clouds
7:54 AM 63.0 °F - 61.0 °F 93% 30.19 in 10.0 mi SE 6.9 mph - N/A   Mostly Cloudy
8:54 AM 69.1 °F - 63.0 °F 81% 30.19 in 10.0 mi SSE 9.2 mph - N/A   Overcast
9:54 AM 73.0 °F - 64.0 °F 73% 30.19 in 10.0 mi South 8.1 mph - N/A   Overcast
10:54 AM 77.0 °F - 63.0 °F 62% 30.18 in 10.0 mi South 11.5 mph - N/A   Overcast
11:54 AM 78.1 °F - 63.0 °F 60% 30.16 in 10.0 mi South 8.1 mph - N/A   Mostly Cloudy
12:54 PM 79.0 °F - 62.1 °F 56% 30.14 in 10.0 mi South 10.4 mph - N/A   Mostly Cloudy
1:54 PM 82.0 °F 82.7 °F 61.0 °F 49% 30.10 in 10.0 mi South 9.2 mph - N/A   Mostly Cloudy
2:54 PM 82.0 °F 82.4 °F 60.1 °F 47% 30.08 in 10.0 mi South 8.1 mph - N/A   Mostly Cloudy
3:54 PM 82.9 °F 83.2 °F 60.1 °F 46% 30.06 in 10.0 mi SSE 11.5 mph - N/A   Mostly Cloudy
4:54 PM 81.0 °F 81.7 °F 61.0 °F 50% 30.04 in 10.0 mi SSE 9.2 mph - N/A   Mostly Cloudy
5:54 PM 80.1 °F 81.1 °F 61.0 °F 52% 30.04 in 10.0 mi SSE 8.1 mph - N/A   Mostly Cloudy
6:54 PM 78.1 °F - 61.0 °F 56% 30.05 in 10.0 mi SSE 5.8 mph - N/A   Mostly Cloudy
7:54 PM 75.9 °F - 61.0 °F 60% 30.05 in 10.0 mi East 9.2 mph - N/A   Overcast
8:54 PM 75.0 °F - 64.0 °F 69% 30.08 in 10.0 mi ESE 5.8 mph - N/A   Overcast
9:54 PM 73.0 °F - 64.9 °F 76% 30.09 in 10.0 mi ESE 5.8 mph - 0.00 in   Overcast
10:54 PM 72.0 °F - 64.9 °F 78% 30.09 in 10.0 mi SE 5.8 mph - N/A   Mostly Cloudy
11:54 PM 70.0 °F - 64.0 °F 81% 30.09 in 10.0 mi ESE 4.6 mph - N/A   Mostly Cloudy